EW3708 Weather Reports


time (UTC)temp
C
wind
direction
speed
KPH
gust
KPH
rain 1hr
cm
rain 24hr
cm
rain mn
cm
humidity
%
barometer
mb
20260902201539 19 215 0.0 4.8 0.00 0.33 0.03 95 1017.0
20260902200049 19 126 0.0 4.8 0.00 0.33 0.03 95 1017.0
20260902194532 19 173 0.0 4.8 0.00 0.33 0.03 95 1016.9
20260902193032 19 176 1.6 4.8 0.00 0.33 0.03 96 1017.2
20260902191534 19 204 0.0 4.8 0.00 0.33 0.03 96 1016.7
20260902190047 18 167 0.0 4.8 0.00 0.33 0.03 95 1016.9
20260902184533 18 160 0.0 3.2 0.00 0.33 0.03 95 1017.1
20260902183030 18 207 1.6 4.8 0.00 0.33 0.03 95 1017.3
20260902181530 18 155 0.0 8.0 0.00 0.33 0.03 95 1017.7
20260902180029 18 178 1.6 4.8 0.00 0.33 0.03 95 1018.1
20260902174528 18 178 0.0 3.2 0.00 0.33 0.03 95 1018.1
20260902173028 18 178 1.6 4.8 0.00 0.33 0.03 95 1018.3
20260902171528 18 179 0.0 3.2 0.00 0.33 0.03 95 1018.1
20260902170027 18 149 1.6 6.4 0.03 0.33 0.03 95 1018.0
20260902164525 18 148 0.0 4.8 0.03 0.33 0.03 95 1017.9
20260902163026 18 202 0.0 3.2 0.03 0.33 0.03 95 1017.9
20260902161530 18 202 0.0 4.8 0.03 0.33 0.03 95 1017.9
20260902160031 18 120 1.6 4.8 0.00 0.30 0.00 95 1017.8
20260902154527 18 178 1.6 4.8 0.00 0.30 0.00 95 1018.0
20260902153024 18 232 0.0 3.2 0.00 0.30 0.00 95 1018.0
20260902151523 18 132 1.6 4.8 0.00 0.30 0.00 94 1018.1
20260902150023 18 92 1.6 4.8 0.00 0.30 0.00 95 1018.0
20260902144521 18 205 1.6 4.8 0.00 0.33 0.00 95 1017.9
20260902143021 18 192 1.6 3.2 0.00 0.33 0.00 95 1017.9
20260902141532 18 204 1.6 3.2 0.00 0.33 0.00 95 1018.4
20260902140018 18 238 0.0 3.2 0.00 0.33 0.00 95 1018.3
20260902134516 18 200 1.6 4.8 0.00 0.33 0.00 95 1017.8
20260902133014 18 146 0.0 3.2 0.00 0.33 0.00 95 1017.7
20260902131521 18 146 0.0 3.2 0.00 0.33 0.00 95 1017.5
20260902130013 18 246 1.6 4.8 0.00 0.33 0.00 95 1017.4
20260902124510 18 188 1.6 4.8 0.00 0.33 0.00 95 1017.4
20260902123010 18 138 1.6 4.8 0.00 0.33 0.00 95 1017.3
20260902121509 18 75 0.0 1.6 0.00 0.33 0.00 95 1017.2
20260902120008 18 75 0.0 1.6 0.00 0.33 0.00 95 1017.0
20260902114511 18 75 0.0 3.2 0.00 0.33 0.00 95 1017.0
20260902113004 19 75 0.0 3.2 0.00 0.33 0.00 95 1017.2
20260902111503 19 75 0.0 1.6 0.00 0.33 0.00 95 1017.1
20260902110006 19 75 0.0 1.6 0.00 0.33 0.00 95 1017.1
20260902104505 19 75 0.0 3.2 0.00 0.33 0.00 95 1016.7
20260902103100 19 75 0.0 3.2 0.00 0.33 0.00 94 1016.8
20260902101617 20 221 0.0 3.2 0.00 0.33 0.00 95 1016.9
20260902100058 20 244 0.0 3.2 0.00 0.33 0.00 94 1016.7
20260902094556 20 236 0.0 3.2 0.00 0.33 0.00 95 1016.5
20260902093055 20 236 1.6 3.2 0.00 0.33 0.00 95 1016.3
20260902091555 20 236 0.0 1.6 0.00 0.33 0.00 95 1016.4
20260902090054 20 236 0.0 3.2 0.00 0.33 0.00 95 1016.3
20260902084556 20 236 0.0 1.6 0.00 0.33 0.00 95 1016.2
20260902083053 20 236 0.0 1.6 0.00 0.33 0.00 95 1016.0
20260902081553 20 236 0.0 1.6 0.00 0.33 0.00 95 1015.9
20260902080104 20 236 0.0 1.6 0.00 0.33 0.00 95 1015.8
20260902074552 20 236 0.0 3.2 0.00 0.33 0.00 95 1015.8
20260902073055 21 236 0.0 1.6 0.00 0.33 0.00 95 1015.8
20260902071555 21 236 0.0 3.2 0.00 0.33 0.00 95 1015.9
20260902070054 21 235 0.0 0.0 0.00 0.33 0.00 95 1015.8
20260902064601 21 235 0.0 1.6 0.00 0.33 0.00 95 1015.7
20260902063049 21 235 0.0 1.6 0.00 0.33 0.00 95 1015.8
20260902061556 21 248 0.0 3.2 0.00 0.33 0.00 95 1016.1
20260902060048 21 238 0.0 4.8 0.00 0.33 0.00 96 1016.3
20260902054550 21 111 0.0 3.2 0.00 0.33 0.00 95 1016.3
20260902053044 20 111 0.0 1.6 0.00 0.33 0.00 95 1016.4
20260902051541 20 111 0.0 0.0 0.00 0.33 0.00 95 1016.3
20260902050041 20 111 0.0 0.0 0.00 0.33 0.00 95 1016.2
20260902044538 20 111 0.0 0.0 0.00 0.33 0.00 95 1016.1
20260902043038 20 111 0.0 0.0 0.00 0.33 0.00 94 1016.2
20260902041536 20 111 0.0 0.0 0.00 0.33 0.00 94 1016.0
20260902040034 20 111 0.0 0.0 0.00 0.33 0.00 94 1015.7
20260902034532 20 111 0.0 0.0 0.00 0.33 0.33 94 1015.7
20260902033039 20 111 0.0 0.0 0.00 0.33 0.33 94 1015.5
20260902031534 20 111 0.0 0.0 0.00 0.33 0.33 94 1015.4
20260902030031 19 111 0.0 0.0 0.00 0.33 0.33 93 1015.4
20260902024530 20 111 0.0 0.0 0.00 0.33 0.33 94 1014.8
20260902023030 20 111 0.0 0.0 0.00 0.33 0.33 94 1014.4
20260902021535 20 111 0.0 0.0 0.00 0.33 0.33 93 1014.6
20260902020029 20 111 0.0 0.0 0.00 0.33 0.33 93 1014.4
20260902014536 20 111 0.0 0.0 0.00 0.33 0.33 93 1014.3
20260902013030 20 111 0.0 0.0 0.00 0.33 0.33 93 1014.2
20260902011535 20 111 0.0 0.0 0.00 0.33 0.33 93 1014.5
20260902010042 20 111 0.0 0.0 0.00 0.33 0.33 93 1014.9
20260902004533 20 111 0.0 0.0 0.00 0.33 0.33 93 1014.7
20260902003026 21 111 0.0 0.0 0.03 0.33 0.33 93 1014.2
20260902001526 21 111 0.0 0.0 0.03 0.33 0.33 93 1013.4
20260902000043 21 111 0.0 0.0 0.03 0.33 0.33 93 1013.0
20260901234551 21 111 0.0 0.0 0.03 0.33 0.33 93 1012.8
20260901233024 21 111 0.0 0.0 0.00 0.30 0.30 93 1013.1
20260901231538 21 111 0.0 0.0 0.00 0.30 0.30 93 1013.3
20260901230026 21 111 0.0 0.0 0.00 0.30 0.30 93 1013.1
20260901224530 21 111 0.0 0.0 0.00 0.30 0.30 92 1013.3
20260901223034 21 111 0.0 1.6 0.03 0.30 0.30 92 1013.4
20260901221528 21 111 0.0 3.2 0.18 0.30 0.30 92 1013.5
20260901220023 21 113 0.0 3.2 0.20 0.30 0.30 90 1013.3
20260901214522 22 113 1.6 3.2 0.28 0.30 0.30 88 1012.8
20260901213021 23 213 3.2 6.4 0.23 0.25 0.25 87 1013.3
20260901211520 25 193 0.0 3.2 0.10 0.13 0.13 87 1013.0
20260901210020 26 193 1.6 3.2 0.08 0.10 0.10 82 1013.0
20260901204519 27 132 0.0 4.8 0.00 0.03 0.03 75 1012.4
20260901203022 27 244 1.6 4.8 0.00 0.03 0.03 75 1012.7